This is the latest recevied weather packets stored in our database for station/object SQ7IQO. If no packets are shown the sender has not sent any weather packets the latest 10 day(s).
| Time | Temp. | Humidity | Pressure | Rain* | Wind** | Luminosity | Snow |
|---|---|---|---|---|---|---|---|
| 1787734718 | 21.67° C | 58% | 1024.2 hPa | 0 mm | 0 m/s | - | - |
| 1787734658 | 21.67° C | 58% | 1024.2 hPa | 0 mm | 0.45 m/s, ° | - | - |
| 1787734598 | 21.11° C | 60% | 1024.2 hPa | 0 mm | 0 m/s | - | - |
| 1787734538 | 21.67° C | 55% | 1024.2 hPa | 0 mm | 0 m/s | - | - |
| 1787734478 | 22.22° C | 52% | 1024.2 hPa | 0 mm | 0 m/s | - | - |
| 1787734418 | 22.78° C | 56% | 1024.2 hPa | 0 mm | 0.45 m/s, ° | - | - |
| 1787734358 | 22.22° C | 54% | 1024.2 hPa | 0 mm | 0 m/s | - | - |
| 1787734298 | 21.67° C | 57% | 1024.2 hPa | 0 mm | 0 m/s | - | - |
| 1787734238 | 21.67° C | 55% | 1024.2 hPa | 0 mm | 0 m/s | - | - |
| 1787734178 | 21.67° C | 57% | 1024.2 hPa | 0 mm | 0 m/s | - | - |
| 1787734118 | 22.22° C | 57% | 1024.2 hPa | 0 mm | 0 m/s | - | - |
| 1787734058 | 21.67° C | 57% | 1024.2 hPa | 0 mm | 0 m/s | - | - |
| 1787733998 | 21.11° C | 59% | 1024.2 hPa | 0 mm | 0 m/s | - | - |
| 1787733938 | 20.56° C | 59% | 1024.2 hPa | 0 mm | 0 m/s | - | - |
| 1787733878 | 20.56° C | 58% | 1024.2 hPa | 0 mm | 0.45 m/s, ° | - | - |
| 1787733818 | 20° C | 61% | 1024.2 hPa | 0 mm | 0 m/s | - | - |
| 1787733758 | 20° C | 61% | 1024.2 hPa | 0 mm | 0 m/s | - | - |
| 1787733698 | 20.56° C | 58% | 1024.2 hPa | 0 mm | 0.45 m/s, ° | - | - |
| 1787733638 | 20.56° C | 59% | 1024.2 hPa | 0 mm | 0 m/s | - | - |
| 1787733578 | 20.56° C | 58% | 1024.2 hPa | 0 mm | 0 m/s | - | - |
| 1787733518 | 20° C | 59% | 1024.2 hPa | 0 mm | 0 m/s | - | - |
| 1787733458 | 20.56° C | 59% | 1024.2 hPa | 0 mm | 0.45 m/s, ° | - | - |
| 1787733398 | 20° C | 60% | 1024.3 hPa | 0 mm | 0 m/s | - | - |
| 1787733338 | 20° C | 60% | 1024.3 hPa | 0 mm | 0.45 m/s, ° | - | - |
| 1787733278 | 20.56° C | 57% | 1024.3 hPa | 0 mm | 0.45 m/s, ° | - | - |
* Rain latest hour (hover to see other rain measurements)
** Current wind speed in m/s (hover to see current wind gust speed)